Aérodrome :
LOGIN :

S'inscrire | Disclaimer

   EN    FR    IT 

 










Légende :    VFR   VFR Marginal   IFR   IFR Intensif   IFR Très Intensif
Visi : 
Plafond : 
>= 8 km
>= 3000ft
5 à 8 km
1000 à 3000 ft
1500m à 5 km
500 à 1000 ft
800 à 1500m
200 à 500 ft
< 800m
< 200 ft
Symboles :   Orages  Brouillard  Fortes neiges  Fortes précipitations  Vent > 20 kt
SIGMETs :   Divers  Orages  Givrage  Turbulence  Onde Orograph.  Cendres Volcan.






- Altitude de l'aérodrome : 74 ft
- Code IATA : NDZ


ETMN - Cuxhaven Nordholz Sea AB

DERNIER METAR :
  • 221620Z 08001KT 9999 20/12 Q1007 BLU+BLU+

METARs EXPIRÉS :
  • 221520Z 28003KT 9999 21/11 Q1008 BLU+BLU+

TAF AMD TAF ETMN
Valide du 22 à 17h jusqu'au 23 à 02h UTC


221656Z 2217/2302 VRB03KT 9999 NSW SKC
TEMPO 2220/2302 16003KT 4000 MIFG SKC
PROB30 2223/2302 16003KT 0500 FG SKC BY ETGG



MET'MAP, la Météo Aéronautique d'un coup d'oeil ! - Copyright ORBIFLY Décembre 2007 - Disclaimer

ORBIFLY MET'MAP TEAM :

Programmation & Développement : Alexandra Zaïnal
Sur une idée originale de : Baudouin d'Aumeries
Assistance à la programmation : Marc-Olivier Méhu
Soutien technique & logistique : Manuel Goepfert

Contact : metmap@orbifly.com




SOURCES & CREDITS :

   NOAA